Simultaneous Nadir Overpasses (SNOs) Predictions

Prediction of SNOs between AURA and NPP Satellite Orbit:

Table of predicted SNOs for the next 14.0 days since TLE Epoch: 7/25/2020
Index Date (AURA) Time (AURA) Lat,Lon (AURA) SZA (AURA ) Date (NPP) Time (NPP) Lat,Lon (NPP) SZA (NPP ) Distance(km) Time Diff (sec)
1 07/25/2020 03:41:31 -79.51,-158.46 106.58 07/25/2020 03:41:21 -79.52,-158.34 106.59 2.48 10
2 07/25/2020 04:30:52 79.70, 10.52 73.15 07/25/2020 04:32:00 79.70, 10.53 73.10 0.24 68
3 07/27/2020 19:08:38 79.27, 148.11 74.38 07/27/2020 19:07:39 79.26, 148.06 74.43 1.09 59
4 07/27/2020 19:57:57 -79.58, -42.14 106.08 07/27/2020 19:58:15 -79.58, -42.10 106.10 0.70 18
5 07/30/2020 11:25:05 79.32, -95.62 74.92 07/30/2020 11:24:34 79.32, -95.74 74.96 2.66 31
6 07/30/2020 12:14:25 -79.60, 73.90 105.49 07/30/2020 12:15:11 -79.60, 73.86 105.52 0.90 46
7 08/02/2020 03:41:28 79.53, 21.67 75.26 08/02/2020 03:41:24 79.54, 21.80 75.24 2.52 4
8 08/02/2020 04:30:51 -79.69,-169.54 104.98 08/02/2020 04:32:05 -79.68,-169.64 105.01 2.03 74
9 08/04/2020 19:08:38 -79.25, -31.97 103.65 08/04/2020 19:07:45 -79.24, -32.08 103.59 2.35 53
10 08/04/2020 19:57:55 79.58, 137.92 75.87 08/04/2020 19:58:19 79.59, 137.99 75.84 1.60 24
11 08/07/2020 11:25:03 -79.34, 84.50 103.07 08/07/2020 11:24:38 -79.33, 84.36 103.02 2.93 25
